Location: Frizzleburg
(41.0764°N, 80.4548°W)
Time: 08:37:34
(UTC+00:00)

Lacrosse 5 - Pass Details

Date: 17 November 2019
Orbit: 715 x 724 km, 57.0° (Epoch: 04 December)

Event Time Altitude Azimuth Distance (km) Brightness Sun altitude
Exits shadow 09:40:19 25° 13° (NNE) 1,422 3.4 -28.4°
Drops below altitude 10° 09:42:49 10° 33° (NNE) 2,204 4.7 -27.9°
Sets 09:45:22 0° 42° (NE) 3,125 5.7 -27.5°
